This demonstration page uses our WeatherBlox Daily Observations layout. Learn more.

Left ArrowRight Arrow

38.20091, -84.87328

Hourly Observations for February 29, 2020

Temp ( °F °C ) Dew Point ( °F °C ) Humidity (%) Winds ( mph kmh ) Pressure ( in mb ) Visibility ( mi km ) Precip ( " mm )
12:53 am 00:53 Cloudy with Light Snow 31 -0.6 26 -3.3 82 82 WNW 9 15 30.09 1019 3 4 0.00 0.00
1:02 am 01:02 Cloudy with Light Snow 31 -0.6 26 -3.3 82 82 NNW 14 22 30.12 1020 4 6 0.00 0.00
1:09 am 01:09 Cloudy with Light Snow 30 -1.1 25 -3.9 82 82 NNW 15 24 30.13 1020 3 5 0.00 0.00
1:36 am 01:36 Cloudy 29 -1.7 21 -6.1 72 72 NW 12 19 30.14 1021 10 16 0.00 0.00
1:53 am 01:53 Cloudy 29 -1.7 21 -6.1 72 72 NNW 9 15 30.11 1020 10 16 0.00 0.00
2:31 am 02:31 Mostly Cloudy 28 -2.2 20 -6.7 72 72 NNW 13 20 30.16 1021 10 16 0.00 0.00
2:40 am 02:40 Mostly Cloudy 28 -2.2 19 -7.2 69 69 N 13 20 30.16 1021 10 16 0.00 0.00
2:53 am 02:53 Cloudy 27 -2.8 18 -7.8 69 69 NNW 10 17 30.13 1020 10 16 0.00 0.00
3:53 am 03:53 Mostly Clear 25 -3.9 17 -8.3 72 72 NNW 7 11 30.15 1021 10 16 0.00 0.00
4:53 am 04:53 Mostly Clear 25 -3.9 15 -9.4 66 66 N 7 11 30.16 1021 10 16 0.00 0.00
5:53 am 05:53 Mostly Clear 23 -5 14 -10 68 68 WNW 3 6 30.19 1023 10 16 0.00 0.00
6:53 am 06:53 Clear 21 -6.1 13 -10.6 71 71 WNW 3 6 30.22 1023 10 16 0.00 0.00
7:53 am 07:53 Sunny 22 -5.6 13 -10.6 68 68 W 3 6 30.24 1024 10 16 0.00 0.00
8:53 am 08:53 Sunny 26 -3.3 15 -9.4 63 63 WNW 5 7 30.26 1025 10 16 0.00 0.00
9:53 am 09:53 Sunny 28 -2.2 11 -11.7 49 49 NW 8 13 30.27 1025 10 16 0.00 0.00
10:53 am 10:53 Sunny 30 -1.1 10 -12.2 43 43 WNW 6 9 30.28 1025 10 16 0.00 0.00
11:53 am 11:53 Sunny 32 0 10 -12.2 40 40 VRB 6 9 30.29 1026 10 16 0.00 0.00
12:53 pm 12:53 Sunny 35 1.7 14 -10 42 42 W 10 17 30.27 1025 10 16 0.00 0.00
1:53 pm 13:53 Sunny 36 2.2 11 -11.7 35 35 VRB 3 6 30.26 1025 10 16 0.00 0.00
2:53 pm 14:53 Sunny 38 3.3 10 -12.2 31 31 W 9 15 30.24 1024 10 16 0.00 0.00
3:53 pm 15:53 Sunny 39 3.9 10 -12.2 30 30 W 5 7 30.24 1024 10 16 0.00 0.00
4:53 pm 16:53 Sunny 40 4.4 10 -12.2 29 29 WSW 9 15 30.24 1024 10 16 0.00 0.00
5:53 pm 17:53 Sunny 39 3.9 9 -12.8 29 29 W 7 11 30.25 1024 10 16 0.00 0.00
6:53 pm 18:53 Clear 35 1.7 10 -12.2 35 35 Calm 30.25 1025 10 16 0.00 0.00
7:53 pm 19:53 Clear 30 -1.1 13 -10.6 49 49 Calm 30.26 1025 10 16 0.00 0.00
8:53 pm 20:53 Clear 27 -2.8 13 -10.6 55 55 Calm 30.26 1025 10 16 0.00 0.00
9:53 pm 21:53 Clear 28 -2.2 14 -10 56 56 SSW 3 6 30.26 1025 10 16 0.00 0.00
10:53 pm 22:53 Clear 27 -2.8 14 -10 58 58 Calm 30.25 1024 10 16 0.00 0.00
11:53 pm 23:53 Clear 27 -2.8 14 -10 58 58 Calm 30.24 1024 10 16 0.00 0.00

Powered by AerisWeather